Location: Waco, TX
(31.5480°N, 97.1670°W)
Time: 22:14:23
(UTC-05:00)

ISS - Pass Details

Date: 28 May 2017
Orbit: 402 x 409 km, 51.6° (Epoch: 23 May)

Event Time Altitude Azimuth Distance (km) Brightness Sun altitude
Rises 20:41:32 0° 253° (WSW) 2,321 0.8 -3.6°
Reaches altitude 10° 20:43:55 10° 269° (W) 1,463 0.1 -4.1°
Maximum altitude 20:46:32 22° 323° (NW) 952 -0.9 -4.6°
Drops below altitude 10° 20:49:10 10° 16° (NNE) 1,467 -0.8 -5.1°
Sets 20:51:34 0° 32° (NNE) 2,329 0.0 -5.5°
